Location: Dompnac
(44.5644°N, 4.1026°E)
Time: 15:27:06
(UTC+00:00)

Cosmos 1891 Rocket - Pass Details

Date: 25 January 2021
Orbit: 934 x 1018 km, 82.9° (Epoch: 05 March)

Event Time Altitude Azimuth Distance (km) Brightness Sun altitude
Rises 04:55:04 0° 200° (SSW) 3,650 7.3 -23.8°
Reaches altitude 10° 04:57:39 10° 205° (SSW) 2,695 6.6 -23.4°
Maximum altitude 05:03:39 54° 282° (WNW) 1,148 4.5 -22.3°
Drops below altitude 10° 05:09:36 10° 360° (N) 2,667 6.7 -21.3°
Sets 05:12:09 0° 5° (N) 3,609 7.5 -20.8°
